{"data":{"norad_id":54122,"intl_designator":"2022-138K","name":"ONEWEB-0504","alt_names":[],"object_type":"PAYLOAD","status":"ACTIVE","operator":null,"country":"UK","launch_date":"2022-10-22","launch_site_code":"SRILR","launch_vehicle":null,"mission":null,"orbit_class":"UNKNOWN","rcs_meters":null,"size_class":null,"mass_kg":null,"dimensions":null,"purposes":["comms"],"wikipedia_slug":null,"has_3d_model":false,"image_url":null,"decayed_at":null,"tle_current":{"epoch":"2026-05-25T03:44:19.200192Z","epoch_age_seconds":55544,"freshness":"FRESH","line1":"1 54122U 22138K   26145.15577778  .00000079  00000+0  16612-3 0  9999","line2":"2 54122  87.9158 309.5555 0001820  85.7277 274.4063 13.19725782173791","mean_motion":13.19725782,"eccentricity":0.000182,"inclination_deg":87.9158,"raan_deg":309.5555,"arg_perigee_deg":85.7277,"mean_anomaly_deg":274.4063,"bstar":0.00016612,"rev_number":17379,"period_min":109.11357644447,"perigee_km":1184.3909333846,"apogee_km":1187.1441946459,"semimajor_km":7563.9045640153,"source":"CELESTRAK","updated_at":"2026-05-25T13:38:22.586167Z"}}}